EN

Hourly Weather Amboise

Today, 20 January, Wednesday

Time Temperature Precipitation Wind Pressure Humidity
00:00 +7°C° 0 mm 6 mps 749 mmHg 76%
01:00 +7°C° 0.3 mm 6 mps 748 mmHg 79%
02:00 +7°C° 0.3 mm 6 mps 747 mmHg 82%
03:00 +7°C° 0.3 mm 6 mps 746 mmHg 84%
04:00 +7°C° 0 mm 6 mps 746 mmHg 83%
05:00 +5°C° 0 mm 7 mps 745 mmHg 82%
06:00 +5°C° 0 mm 7 mps 745 mmHg 80%
07:00 +5°C° 0 mm 8 mps 744 mmHg 79%
08:00 +6°C° 0 mm 9 mps 744 mmHg 78%
09:00 +6°C° 0 mm 9 mps 743 mmHg 78%
10:00 +7°C° 0 mm 9 mps 743 mmHg 76%
11:00 +7°C° 0 mm 9 mps 742 mmHg 74%
12:00 +8°C° 0 mm 10 mps 742 mmHg 72%
13:00 +8°C° 0.2 mm 10 mps 741 mmHg 73%
14:00 +8°C° 0.2 mm 10 mps 740 mmHg 74%
15:00 +8°C° 0.2 mm 11 mps 739 mmHg 75%
16:00 +8°C° 0.3 mm 11 mps 739 mmHg 79%
17:00 +8°C° 0.3 mm 12 mps 738 mmHg 82%
18:00 +7°C° 0.3 mm 12 mps 737 mmHg 85%
19:00 +8°C° 1.3 mm 12 mps 737 mmHg 86%
20:00 +8°C° 1.3 mm 12 mps 736 mmHg 87%
21:00 +9°C° 1.3 mm 12 mps 736 mmHg 89%
22:00 +9°C° 0.9 mm 12 mps 737 mmHg 89%
23:00 +9°C° 0.9 mm 11 mps 737 mmHg 89%

Tomorrow, 21 January, Thursday

Time Temperature Precipitation Wind Pressure Humidity
00:00 +9°C° 0.9 mm 11 mps 738 mmHg 90%
01:00 +9°C° 0.5 mm 8 mps 738 mmHg 88%
02:00 +7°C° 0.5 mm 6 mps 739 mmHg 86%
03:00 +5°C° 0.5 mm 4 mps 740 mmHg 84%
04:00 +5°C° 0 mm 4 mps 740 mmHg 84%
05:00 +5°C° 0 mm 4 mps 741 mmHg 85%
06:00 +3°C° 0 mm 5 mps 742 mmHg 85%
07:00 +5°C° 0 mm 5 mps 742 mmHg 84%
08:00 +5°C° 0 mm 5 mps 742 mmHg 82%
09:00 +5°C° 0 mm 6 mps 742 mmHg 81%
10:00 +7°C° 0.2 mm 6 mps 741 mmHg 82%
11:00 +6°C° 0.2 mm 7 mps 741 mmHg 84%
12:00 +8°C° 0.2 mm 7 mps 740 mmHg 85%
13:00 +7°C° 2 mm 8 mps 738 mmHg 85%
14:00 +8°C° 2 mm 10 mps 737 mmHg 84%
15:00 +8°C° 2 mm 11 mps 735 mmHg 84%
16:00 +8°C° 0.5 mm 11 mps 736 mmHg 83%
17:00 +8°C° 0.5 mm 11 mps 736 mmHg 83%
18:00 +7°C° 0.5 mm 11 mps 736 mmHg 83%
19:00 +6°C° 0.1 mm 10 mps 737 mmHg 85%
20:00 +5°C° 0.1 mm 8 mps 737 mmHg 87%
21:00 +4°C° 0.1 mm 6 mps 738 mmHg 89%
22:00 +3°C° 0 mm 5 mps 739 mmHg 91%
23:00 +4°C° 0 mm 4 mps 739 mmHg 92%

Day after tomorrow, 22 January, Friday

Time Temperature Precipitation Wind Pressure Humidity
00:00 +3°C° 0 mm 3 mps 739 mmHg 93%
01:00 +4°C° 0.4 mm 2 mps 739 mmHg 93%
02:00 +5°C° 0.4 mm 2 mps 738 mmHg 93%
03:00 +5°C° 0.4 mm 2 mps 738 mmHg 92%
04:00 +4°C° 2.8 mm 3 mps 737 mmHg 93%
05:00 +3°C° 2.8 mm 4 mps 737 mmHg 94%
06:00 +2°C° 2.8 mm 5 mps 736 mmHg 95%
07:00 +3°C° 0.4 mm 4 mps 737 mmHg 95%
08:00 +3°C° 0.4 mm 3 mps 737 mmHg 94%
09:00 +4°C° 0.4 mm 2 mps 738 mmHg 93%
10:00 +4°C° 0 mm 3 mps 739 mmHg 88%
11:00 +5°C° 0 mm 4 mps 739 mmHg 82%
12:00 +7°C° 0 mm 5 mps 740 mmHg 77%
13:00 +7°C° 0 mm 5 mps 740 mmHg 77%
14:00 +7°C° 0 mm 5 mps 741 mmHg 76%
15:00 +7°C° 0 mm 4 mps 741 mmHg 76%
16:00 +6°C° 0 mm 4 mps 741 mmHg 78%
17:00 +5°C° 0 mm 4 mps 741 mmHg 80%
18:00 +4°C° 0 mm 4 mps 742 mmHg 83%
19:00 +4°C° 0 mm 4 mps 742 mmHg 84%
20:00 +3°C° 0 mm 4 mps 741 mmHg 86%
21:00 +3°C° 0 mm 3 mps 741 mmHg 88%
22:00 +3°C° 0.1 mm 4 mps 741 mmHg 88%
23:00 +3°C° 0.1 mm 4 mps 741 mmHg 88%

23 January, Saturday

Time Temperature Precipitation Wind Pressure Humidity
00:00 +4°C° 0.1 mm 4 mps 741 mmHg 88%
01:00 +3°C° 0 mm 4 mps 741 mmHg 89%
02:00 +3°C° 0 mm 4 mps 741 mmHg 90%
03:00 +1°C° 0 mm 4 mps 740 mmHg 91%
04:00 +2°C° 0.1 mm 3 mps 740 mmHg 91%
05:00 +2°C° 0.1 mm 3 mps 740 mmHg 91%
06:00 +2°C° 0.1 mm 3 mps 740 mmHg 91%
07:00 +2°C° 0 mm 3 mps 741 mmHg 91%
08:00 +1°C° 0 mm 4 mps 742 mmHg 91%
09:00 +1°C° 0 mm 4 mps 742 mmHg 90%
10:00 +1°C° 0.2 mm 4 mps 743 mmHg 90%
11:00 +2°C° 0.2 mm 5 mps 743 mmHg 90%
12:00 +2°C° 0.2 mm 5 mps 744 mmHg 90%
13:00 +3°C° 0.1 mm 5 mps 744 mmHg 85%
14:00 +4°C° 0.1 mm 4 mps 744 mmHg 80%
15:00 +5°C° 0.1 mm 4 mps 744 mmHg 76%
16:00 +4°C° 0 mm 3 mps 744 mmHg 79%
17:00 +3°C° 0 mm 2 mps 744 mmHg 83%
18:00 +2°C° 0 mm 2 mps 745 mmHg 87%
19:00 +2°C° 0 mm 2 mps 745 mmHg 87%
20:00 +3°C° 0 mm 1 mps 745 mmHg 88%
21:00 +3°C° 0 mm 1 mps 745 mmHg 89%
22:00 +3°C° 0 mm 1 mps 745 mmHg 89%
23:00 +3°C° 0 mm 1 mps 745 mmHg 89%

24 January, Sunday

Time Temperature Precipitation Wind Pressure Humidity
00:00 +3°C° 0 mm 1 mps 745 mmHg 89%
01:00 +2°C° 0 mm 2 mps 745 mmHg 90%
02:00 +2°C° 0 mm 2 mps 744 mmHg 90%
03:00 +2°C° 0 mm 2 mps 744 mmHg 90%
04:00 +1°C° 0 mm 3 mps 745 mmHg 90%
05:00 0°C° 0 mm 4 mps 745 mmHg 90%
06:00 +1°C° 0 mm 4 mps 745 mmHg 90%
07:00 +1°C° 0 mm 4 mps 745 mmHg 86%
08:00 +1°C° 0 mm 5 mps 746 mmHg 83%
09:00 +1°C° 0 mm 5 mps 746 mmHg 80%
10:00 +2°C° 0 mm 5 mps 747 mmHg 75%
11:00 +3°C° 0 mm 6 mps 747 mmHg 70%
12:00 +4°C° 0 mm 7 mps 747 mmHg 66%
13:00 +4°C° 0.2 mm 6 mps 747 mmHg 68%
14:00 +4°C° 0.2 mm 6 mps 748 mmHg 70%
15:00 +4°C° 0.2 mm 6 mps 748 mmHg 72%
16:00 +2°C° 0.1 mm 5 mps 748 mmHg 76%
17:00 +1°C° 0.1 mm 4 mps 748 mmHg 80%
18:00 0°C° 0.1 mm 4 mps 749 mmHg 84%
19:00 0°C° 0 mm 4 mps 750 mmHg 85%
20:00 0°C° 0 mm 4 mps 750 mmHg 86%
21:00 -1°C° 0 mm 4 mps 751 mmHg 87%
22:00 -1°C° 0 mm 4 mps 751 mmHg 87%
23:00 -1°C° 0 mm 4 mps 752 mmHg 87%

25 January, Monday

Time Temperature Precipitation Wind Pressure Humidity
00:00 -2°C° 0 mm 4 mps 752 mmHg 87%
01:00 -2°C° 0 mm 4 mps 753 mmHg 87%
02:00 -2°C° 0 mm 4 mps 753 mmHg 87%
03:00 0°C° 0 mm 3 mps 753 mmHg 87%
04:00 0°C° 0 mm 3 mps 754 mmHg 87%
05:00 0°C° 0 mm 3 mps 754 mmHg 87%
06:00 0°C° 0 mm 3 mps 754 mmHg 88%
07:00 0°C° 0 mm 3 mps 755 mmHg 86%
08:00 +1°C° 0 mm 3 mps 755 mmHg 85%
09:00 +1°C° 0 mm 3 mps 756 mmHg 83%
10:00 +3°C° 0 mm 4 mps 756 mmHg 78%
11:00 +5°C° 0 mm 4 mps 756 mmHg 73%
12:00 +6°C° 0 mm 5 mps 757 mmHg 67%
13:00 +6°C° 0 mm 4 mps 757 mmHg 69%
14:00 +6°C° 0 mm 4 mps 757 mmHg 71%
15:00 +7°C° 0 mm 3 mps 757 mmHg 73%
16:00 +5°C° 0 mm 3 mps 757 mmHg 77%
17:00 +4°C° 0 mm 2 mps 758 mmHg 81%
18:00 +3°C° 0 mm 2 mps 758 mmHg 85%
19:00 +3°C° 0 mm 2 mps 758 mmHg 85%
20:00 +3°C° 0 mm 2 mps 759 mmHg 85%
21:00 +2°C° 0 mm 3 mps 759 mmHg 86%
22:00 +2°C° 0 mm 3 mps 759 mmHg 87%
23:00 +2°C° 0 mm 3 mps 759 mmHg 88%
Show more